CAPE
0 0 0 0 0 0 0 0 0 0 0 0 0 0 0 0 0 0 0 0 0 0 0 0 0 0 0 832 1889 2037 2060 1910 1770 1848 1706 1660 1608 1553 1580 1699 1988 2091 2004 1809 1922 1784 1768 1660 1438 1786 1530 1311 1340 1410 1542 1813 1922 1992 2302 2550 2651 2848 2816 2625 2304 2054 1786 1506 1442 1518 1680 1528 1156 1102 1115 1057 1135 1233 1088 816 801 672 536 471 522 594
0 0 0 0 0 0 0 0 0 0 0 0 0 0 0 0 0 0 0 0 0 0 0 0 0 0 0 687 1779 2000 1992 1945 1873 1849 1898 1741 1614 1613 1619 1715 1820 1958 1919 1818 1838 1657 1645 1748 1627 1695 1803 1622 1406 1415 1430 1389 1571 1874 2134 2624 2598 2799 2669 2585 2255 1840 1705 1670 1786 1690 1424 1329 1276 1183 1135 1030 1043 1093 988 868 652 825 637 518 660 498
0 0 0 0 0 0 0 0 0 0 0 0 0 0 0 0 0 0 0 0 0 0 0 0 0 0 0 605 1413 1802 1892 2031 1900 1893 1982 1805 1664 1591 1679 1694 1784 1809 1794 1900 1853 1873 1943 1970 1839 1776 1852 1876 1698 1678 1750 1483 1686 1840 2156 2590 2541 2787 2776 2536 2220 1807 1768 1432 975 1249 952 924 632 712 711 637 585 525 522 546 650 620 685 758 723 574
0 0 0 0 0 0 0 0 0 0 0 0 0 0 0 0 0 0 0 0 0 0 0 0 0 0 59 487 1087 1348 1756 2085 2080 2148 1995 1956 1802 1664 1693 1751 1797 1758 1859 1951 2008 2061 2136 2120 1918 1909 1974 2011 2002 1967 1909 1522 1534 1669 1993 1990 2347 2652 2825 2562 2319 1941 1660 1178 790 689 718 566 558 579 517 370 103 112 98 68 34 102 313 716 962 525
0 0 0 0 0 0 0 0 0 0 0 0 0 0 0 0 0 0 0 0 0 0 0 0 0 0 100 588 1130 1540 1786 1741 1935 2104 2063 1971 1868 1849 1832 1866 1883 1836 1939 2078 2146 2199 2267 2111 1795 1890 1960 1968 1954 1935 1869 1460 1358 1434 1780 1924 2294 2520 2688 2708 2261 1842 1505 1000 660 570 514 396 348 380 349 311 211 316 137 30 70 5 11 91 377 589
0 0 0 0 0 0 0 0 0 0 0 0 0 0 0 0 0 0 0 0 0 0 0 0 0 0 0 320 1109 1024 1297 1514 1530 1810 1938 1986 1867 1823 1704 1798 1786 1888 1780 2055 2291 2321 2350 2254 1884 1773 1631 1595 1611 1628 1365 1161 1116 1275 1434 1917 2237 2307 2530 2464 1966 1676 1423 874 568 604 666 697 604 449 469 367 293 214 206 21 0 0 0 24 198 574
0 0 0 0 0 0 0 0 0 0 0 0 0 0 0 0 0 0 0 0 0 0 0 0 0 0 0 0 441 835 855 1062 1136 1544 1715 1932 1955 1840 1734 1720 1632 1622 1570 1667 2180 2398 2473 2436 2048 1789 1418 1182 1333 1275 1013 783 746 835 982 1403 1824 2050 2340 2144 1634 1460 1311 771 930 1346 1362 1126 866 486 232 149 217 222 5 1 0 0 0 5 451 644
0 0 0 0 0 0 0 0 0 0 0 0 0 0 0 0 0 0 0 0 0 0 0 0 0 0 0 0 0 668 909 794 1043 1264 1694 1809 1951 1995 1928 1802 1639 1512 1491 1564 1984 2356 2557 2543 2050 1766 1467 1179 1088 1034 998 961 782 795 847 997 1354 1772 2168 2089 1506 1241 1157 900 813 878 904 855 706 550 238 203 112 58 2 0 0 0 0 3 200 572
0 0 0 0 0 0 0 0 0 0 0 0 0 0 0 0 0 0 0 0 0 0 2 0 0 1 1 0 0 0 144 439 619 890 1227 1531 1635 1855 1876 1773 1697 1559 1549 1629 1662 2285 2613 2590 2156 1742 1598 1327 1157 1170 1223 1120 885 876 925 1023 1169 1551 2015 2115 1656 1106 759 610 636 793 743 503 398 418 245 149 58 9 2 0 0 10 0 11 0 5
0 0 0 0 0 0 0 0 0 0 0 0 0 0 0 0 0 0 0 0 1 0 0 3 0 0 0 2 0 0 17 144 310 437 728 1113 1387 1480 1610 1646 1667 1652 1638 1629 1725 2113 2596 2632 2256 1888 1867 1720 1490 1185 1306 1303 1140 973 1125 1298 1468 1709 1923 1892 1298 857 470 325 418 706 864 644 417 305 204 158 100 34 48 5 0 21 55 34 31 0
0 0 0 0 0 0 0 0 0 0 0 0 0 0 0 0 0 0 0 0 0 0 0 0 0 0 0 0 0 0 0 0 0 0 0 290 651 1007 1326 1448 1476 1718 1834 1921 2065 2222 2544 2653 2463 2262 2248 2307 2076 1458 1394 1404 1318 975 1238 1367 1471 1584 1597 1272 976 608 357 199 481 757 937 864 584 405 278 171 97 32 60 1 2 24 4 12 6 4
0 0 0 0 0 0 0 0 0 0 0 0 0 0 0 0 0 0 0 0 0 0 0 0 0 0 2 0 0 0 0 0 0 0 0 0 72 398 755 1070 1311 1537 1712 1777 1821 2018 2215 2484 2491 2418 2396 2321 1995 1612 1497 1430 1130 895 1166 1246 1263 1261 1143 975 960 500 278 246 356 559 933 957 726 538 469 345 178 103 60 18 0 0 0 0 0 1
0 0 0 0 0 0 0 0 0 0 0 0 0 0 0 0 0 0 0 0 0 0 0 0 0 0 0 1 0 0 30 100 156 57 20 3 0 0 379 720 1059 1326 1538 1582 1574 1594 1617 1742 2026 2171 2161 2084 1950 1774 1585 1376 969 842 1015 934 851 1011 830 872 842 338 211 215 217 290 667 906 720 647 601 423 247 171 92 30 0 0 0 0 0 0
0 0 0 0 0 0 0 0 0 0 0 0 0 0 0 0 0 0 0 0 0 0 0 0 0 0 0 0 0 8 40 67 186 248 165 65 5 0 69 554 741 1045 1334 1468 1445 1516 1540 1413 1415 1642 1825 1821 1756 1654 1532 1095 794 746 900 635 637 668 568 776 726 135 44 117 171 256 563 645 508 654 660 396 164 178 105 52 27 2 5 2 3 0
0 0 0 0 0 0 0 0 0 0 0 0 0 0 0 0 0 0 0 0 0 0 0 0 0 0 0 1 0 36 179 198 220 172 187 154 164 276 334 413 505 785 1071 1274 1284 1348 1469 1534 1540 1382 1342 1451 1517 1645 1433 841 769 795 904 580 500 412 513 686 553 22 94 80 66 68 275 496 559 496 390 299 181 87 50 50 33 10 25 15 0 0
0 0 0 0 0 0 0 0 0 0 0 0 0 0 0 0 0 0 0 0 0 0 0 0 0 0 0 83 348 228 287 321 272 249 376 406 417 497 538 550 574 772 947 1070 1174 1246 1330 1337 1246 1026 866 1418 1274 1283 1170 743 765 824 736 573 396 343 435 468 479 124 118 144 168 153 270 308 285 239 334 143 32 89 148 49 25 17 18 9 2 2
0 0 0 0 0 0 0 0 0 0 1 0 0 0 0 0 0 0 0 0 0 0 0 0 0 0 125 37 39 472 402 363 432 392 498 543 599 697 679 703 657 747 890 972 1160 1200 1235 879 500 341 438 237 924 1066 876 640 582 812 650 450 449 354 29 315 402 166 217 286 356 420 431 288 234 309 402 248 113 48 31 9 49 90 43 21 23 9
0 0 0 0 0 0 0 0 0 0 0 0 0 0 0 0 0 0 0 0 0 0 0 0 0 7 0 140 0 343 538 477 503 511 489 644 806 828 816 843 844 779 848 974 1090 989 469 177 64 308 498 547 1027 867 715 475 643 877 955 647 545 225 383 268 353 192 299 357 392 418 367 262 302 360 444 226 201 176 51 20 0 0 2 37 21 55
0 0 0 0 0 0 0 0 0 0 0 0 0 0 0 0 0 0 0 0 0 0 0 0 0 0 0 24 0 87 596 690 630 654 599 539 540 532 491 546 520 619 867 882 539 404 168 236 105 490 635 671 689 677 781 861 1120 1323 1400 1204 760 366 560 672 509 404 329 337 329 279 273 308 170 187 364 335 376 193 130 3 0 0 85 66 4 24
0 0 0 0 0 0 0 0 0 0 0 0 0 0 0 0 32 0 0 1 0 0 0 0 0 0 0 8 0 137 396 671 892 791 804 685 560 281 228 288 339 499 357 85 111 194 130 294 279 903 863 775 795 758 748 976 1174 1386 1498 1461 1350 1426 1256 1257 850 646 561 361 372 395 384 254 191 216 150 279 278 264 239 10 0 0 12 168 37 102
0 0 0 0 0 0 0 0 0 0 0 0 0 0 0 0 0 0 0 0 0 0 0 0 0 0 0 0 0 0 0 576 880 940 910 806 569 132 70 57 171 186 364 411 257 410 749 883 955 836 861 902 860 859 838 942 1076 1226 1258 1385 1558 1549 1529 1417 1220 1096 979 788 550 513 508 414 220 281 212 219 318 401 382 99 0 14 31 1 63 37
0 0 0 0 0 0 0 0 0 0 0 0 0 0 0 0 0 0 0 0 0 0 0 0 0 0 0 0 0 0 0 98 814 1001 970 866 467 278 176 80 13 25 69 530 743 951 980 966 908 939 994 990 948 1001 954 898 1086 1143 1102 1250 1407 1518 1524 1379 1188 1064 975 867 771 728 634 490 304 296 266 362 351 506 479 116 5 0 0 23 7 27
1 9 2 0 0 0 0 0 0 0 0 0 0 0 0 0 0 0 0 0 0 0 0 0 0 0 0 0 0 0 0 0 425 877 854 655 385 241 174 267 350 568 741 888 936 1003 1002 1034 1039 1038 1106 1207 1184 1206 1168 1120 1047 1032 1023 1147 1192 1183 1152 1078 1094 1028 973 918 912 817 707 570 471 422 348 477 201 495 453 273 48 0 18 8 15 15
296 6 7 0 0 0 0 0 0 0 0 0 0 0 0 0 0 18 45 0 0 0 0 0 0 0 0 0 0 0 12 3 26 519 528 422 337 400 463 508 593 613 632 670 730 760 784 826 883 995 1049 1036 997 983 967 921 852 812 816 831 850 858 904 908 897 901 906 878 826 774 705 625 564 599 531 489 508 113 82 453 294 90 73 50 100 50
0 0 0 4 0 0 0 0 0 0 0 0 0 0 0 0 0 0 0 0 0 0 0 0 0 0 0 0 0 0 71 176 292 379 475 483 454 542 541 529 520 517 527 526 512 546 574 602 620 628 684 826 919 919 882 865 850 800 853 867 859 864 822 853 826 827 864 904 870 819 784 747 696 649 646 737 657 689 298 343 507 274 130 207 265 320
0 0 0 0 0 0 0 0 0 0 0 0 0 0 0 0 0 0 0 0 0 0 0 0 0 0 0 0 0 61 177 264 423 482 497 558 598 599 592 587 586 574 568 574 563 553 566 564 558 547 526 528 527 553 612 687 791 848 840 839 863 794 777 750 773 793 825 874 906 882 834 775 742 731 713 677 670 708 627 635 560 385 358 324 377 358
0 0 0 0 0 0 0 0 0 0 0 0 0 0 0 0 0 0 1 0 0 0 0 0 0 0 0 0 10 174 279 417 501 564 624 644 686 679 676 667 648 648 632 633 628 646 617 613 628 602 579 540 556 586 601 642 706 730 743 742 714 753 766 755 757 788 781 790 866 922 894 869 832 796 801 782 731 684 619 561 672 602 505 517 554 511
0 0 0 0 0 2 3 0 0 0 0 0 0 0 0 0 0 0 0 0 0 0 0 0 0 33 0 0 0 160 342 516 610 653 675 628 684 710 689 673 650 596 583 592 610 634 665 637 639 630 596 582 588 601 605 649 685 698 731 735 694 660 659 706 696 731 709 751 817 863 955 982 943 858 766 785 568 521 572 609 665 622 627 492 448 478
0 0 0 0 0 0 0 1 0 0 0 0 0 0 0 0 0 0 0 0 0 0 0 0 0 0 0 0 0 199 359 495 676 717 652 550 464 302 441 508 241 246 239 205 204 496 572 615 600 533 559 568 626 668 698 709 692 698 678 647 653 570 585 643 650 663 664 710 758 806 849 821 798 703 432 327 417 428 438 460 459 41 12 234 608 579
2 0 0 0 0 0 0 0 0 1 0 0 0 0 0 0 0 0 0 0 0 0 0 0 0 0 0 0 0 209 366 486 682 769 687 598 502 303 319 294 235 243 237 217 185 177 160 153 155 146 134 436 520 561 560 580 610 574 581 653 627 603 505 494 478 480 493 518 532 552 619 665 696 716 601 359 336 403 426 408 414 398 192 175 534 629
27 16 0 0 0 0 0 0 0 0 0 0 0 0 0 0 0 0 0 0 0 0 0 0 0 0 0 0 0 73 328 489 673 765 714 646 404 434 365 271 202 137 171 222 209 195 184 162 154 108 56 12 0 0 0 0 204 298 382 470 495 536 515 532 536 524 519 491 440 454 489 526 558 557 565 532 454 358 331 414 50 56 48 26 569 52
4 24 0 0 0 0 0 0 0 0 0 0 0 0 0 0 3 0 0 0 0 0 0 0 0 0 0 0 0 146 306 430 650 754 746 698 368 355 237 203 238 260 175 201 166 162 124 74 38 8 0 0 0 0 0 0 0 0 0 0 42 104 288 374 415 439 459 496 550 565 566 558 524 496 464 450 463 441 421 442 447 132 333 502 244 262
6 17 17 13 0 0 0 0 0 0 0 0 0 0 0 0 0 0 0 0 0 0 2 14 3 0 0 0 0 136 259 388 523 641 677 635 432 313 277 297 256 185 160 114 56 28 10 4 2 0 0 0 0 0 0 0 0 0 0 0 0 0 0 0 0 28 169 278 406 424 431 490 549 566 521 462 402 343 397 432 431 556 114 486 533 326
4 22 32 28 3 0 0 0 0 0 0 0 0 0 0 0 0 0 0 0 0 0 0 1 0 0 0 0 1 20 74 294 439 480 474 454 496 520 360 257 122 52 16 3 0 0 0 0 0 0 0 0 0 0 0 0 0 0 0 0 0 0 0 0 0 0 0 0 0 146 225 302 430 448 427 542 429 372 382 370 214 299 59 230 73 199
0 0 1 2 0 0 0 0 0 0 0 0 0 0 0 0 0 0 0 0 0 0 0 0 0 0 0 0 4 32 62 130 238 345 416 392 439 414 358 232 61 11 13 15 12 10 11 9 4 4 3 2 0 0 0 0 0 0 0 0 1 2 0 0 0 0 0 0 0 0 0 0 0 0 73 230 401 610 486 241 58 20 56 82 80 25
0 0 1 0 0 1 0 0 2 4 0 0 0 0 0 0 0 0 0 0 0 0 0 0 0 0 0 0 4 15 34 37 62 120 202 247 260 166 85 110 123 52 54 47 34 29 33 34 33 29 28 21 17 14 10 16 2 0 0 0 0 0 0 0 0 0 0 0 0 0 0 0 0 0 0 0 0 0 22 9 27 29 34 21 17 29
0 1 0 0 0 0 0 0 0 0 0 0 0 0 0 0 0 0 0 0 0 0 0 0 0 0 0 0 0 5 20 18 8 0 25 86 126 111 79 31 1 0 36 14 23 30 25 16 6 4 2 2 3 1 0 0 0 0 0 1 0 0 0 0 0 0 0 0 0 0 0 0 0 0 0 0 0 0 0 0 0 0 0 0 0 0
0 0 0 0 0 0 0 0 0 0 0 0 0 0 0 0 0 0 0 0 0 0 0 0 0 0 0 0 0 0 3 1 0 0 0 0 2 10 20 21 16 9 9 10 18 17 17 12 8 5 3 2 1 0 0 0 0 0 0 0 0 0 0 0 0 0 0 0 0 0 0 0 0 0 0 1 0 0 0 0 0 0 0 0 0 0
0 0 3 1 4 1 0 0 0 0 0 0 0 0 0 0 0 0 0 0 0 0 0 0 0 0 0 0 0 0 0 0 0 0 0 0 0 0 0 0 0 0 0 2 4 5 4 4 1 1 0 0 0 0 0 1 3 4 5 2 1 0 0 0 0 0 0 0 0 0 0 0 0 0 0 0 0 0 0 0 0 0 0 0 0 0
0 0 0 0 0 1 1 0 5 5 3 2 2 0 0 0 0 0 0 0 0 0 0 0 0 0 0 0 0 0 0 0 0 0 0 0 0 0 0 0 0 0 0 0 0 0 0 0 0 0 0 0 0 0 0 0 0 0 0 0 6 7 2 0 0 0 0 0 0 0 0 0 0 0 0 0 0 0 0 0 0 0 0 0 1 0
0 0 0 0 0 0 0 1 0 1 3 8 7 0 0 0 0 0 0 0 0 0 0 0 0 0 0 0 0 0 0 0 0 0 0 0 0 0 0 0 0 0 0 0 0 0 0 0 0 0 0 0 0 0 0 0 0 0 0 0 0 0 0 0 0 0 0 0 0 0 0 0 0 0 1 27 10 0 0 0 0 0 0 0 0 0
0 0 0 0 0 0 0 3 3 0 0 0 0 0 0 0 0 0 0 0 0 0 0 0 0 0 0 0 0 0 0 0 0 0 0 0 0 0 0 0 0 0 0 0 0 0 0 0 0 0 0 0 0 0 0 0 0 0 0 0 0 0 0 0 0 0 0 0 0 0 0 0 0 0 0 0 1 6 6 0 0 0 0 0 0 0
0 0 0 0 0 0 1 6 2 4 0 0 0 0 0 0 0 0 0 0 0 0 0 0 0 0 0 0 0 0 0 0 0 0 0 0 0 0 0 0 0 0 0 0 0 0 0 0 0 0 0 0 0 0 0 0 0 0 0 0 0 0 0 0 0 0 0 0 0 0 0 0 0 0 2 3 1 4 91 46 17 2 0 0 0 0
0 0 0 0 0 0 0 0 0 0 0 0 0 0 0 0 0 0 0 0 0 0 0 0 0 0 0 0 0 0 2 4 7 9 7 3 1 0 0 0 0 0 0 0 0 0 0 0 0 0 0 0 0 0 0 0 0 0 0 0 0 0 0 0 0 0 0 0 0 0 0 0 0 0 0 0 0 1 1 44 5 8 4 32 40 26
0 0 0 0 0 0 0 0 0 0 0 0 0 0 0 0 0 0 0 0 0 0 0 0 0 0 0 1 3 6 9 10 10 10 10 4 0 0 1 1 0 0 0 0 0 0 0 0 0 0 0 0 0 0 0 0 0 0 0 0 0 0 0 0 0 0 0 0 0 0 0 0 0 0 0 0 0 0 0 7 7 6 6 4 45 42
0 0 0 0 1 10 12 6 4 1 2 1 1 0 0 0 0 0 0 0 0 1 4 7 7 6 6 6 9 10 10 12 9 7 9 5 6 5 3 2 2 1 0 0 0 0 0 0 0 0 0 0 0 0 0 0 0 0 0 0 0 0 0 0 0 0 0 0 0 0 0 0 0 0 0 0 0 0 0 5 6 15 31 3 7 10
0 0 0 0 4 0 4 9 14 19 24 18 16 12 9 7 6 6 6 3 1 1 0 0 0 2 3 6 8 8 8 7 8 6 6 6 6 4 2 0 0 0 0 0 0 0 0 0 0 0 0 0 0 0 0 0 0 0 0 0 0 0 0 0 0 0 0 0 0 0 0 0 0 0 1 2 0 0 0 0 4 4 74 36 114 120
0 0 0 0 0 0 0 1 0 1 8 12 14 12 7 3 0 0 0 0 0 0 0 0 0 0 0 0 0 0 0 0 1 0 0 0 0 0 0 0 0 0 0 0 0 0 0 0 0 0 0 0 0 0 0 0 0 0 0 0 0 0 0 0 0 0 0 0 0 0 0 0 0 0 0 0 7 8 7 4 5 8 146 164 222 176
0 0 0 0 0 0 0 0 0 0 0 0 0 0 0 0 0 0 0 0 0 0 0 0 0 0 0 0 0 0 0 0 0 0 0 0 0 0 0 0 0 0 0 0 0 0 1 0 0 0 1 1 1 1 0 0 0 0 0 0 0 0 0 0 0 0 0 0 0 0 0 0 0 0 0 0 0 9 16 16 14 14 15 30 235 207
0 0 0 0 0 0 0 0 0 0 0 0 0 0 0 0 0 0 0 0 0 0 0 0 0 0 0 0 0 0 0 0 0 0 0 0 0 0 0 0 0 0 0 0 0 1 0 1 0 0 0 0 1 1 0 0 0 0 0 0 0 0 0 0 0 0 0 0 0 0 0 0 0 0 0 0 0 0 12 13 22 13 19 3 8 0
0 0 0 0 0 0 0 0 0 0 0 0 0 0 0 0 0 0 0 0 0 0 0 0 0 0 0 0 0 0 0 0 0 0 0 0 0 0 0 0 1 0 0 0 0 0 0 1 1 1 2 2 2 1 0 0 0 0 0 0 0 2 1 0 0 0 0 0 0 0 0 0 0 0 0 0 0 5 23 12 16 18 19 15 6 2
Wind_Speed
nan nan nan nan nan nan nan nan nan nan nan nan nan nan nan nan nan nan nan nan nan nan nan nan nan nan nan 22 23 24 24 20 18 16 13 14 15 15 14 13 13 13 14 18 22 23 23 22 17 16 21 19 14 8 6 6 7 7 6 5 9 11 14 13 12 14 15 14 13 11 10 12 15 17 17 17 17 17 16 16 16 16 16 16 16 17
nan nan nan nan nan nan nan nan nan nan nan nan nan nan nan nan nan nan nan nan nan nan nan nan nan nan nan 22 20 20 16 12 10 8 7 10 11 12 11 12 11 11 15 18 21 20 20 17 16 13 15 19 16 10 7 7 7 6 5 6 12 13 13 12 12 15 15 13 11 11 11 13 15 16 17 19 18 18 17 16 15 15 15 16 16 16
nan nan nan nan nan nan nan nan nan nan nan nan nan nan nan nan nan nan nan nan nan nan nan nan nan nan nan 19 16 13 10 10 8 6 8 10 10 11 11 10 9 10 11 12 14 16 14 14 13 10 11 14 13 13 9 7 8 8 7 9 13 12 11 11 13 16 16 14 13 13 13 15 16 15 18 20 20 19 19 17 15 13 12 13 15 16
nan nan nan nan nan nan nan nan nan nan nan nan nan nan nan nan nan nan nan nan nan nan nan nan nan nan nan 19 17 18 14 17 17 12 13 13 11 11 11 9 7 5 5 4 8 9 10 11 12 10 9 10 11 13 12 11 11 11 10 12 13 12 12 14 15 18 20 19 17 17 17 16 17 19 20 23 21 20 nan nan nan 13 10 9 12 15
nan nan nan nan nan nan nan nan nan nan nan nan nan nan nan nan nan nan nan nan nan nan nan nan nan nan 19 14 11 14 18 18 18 16 15 12 12 9 8 5 4 3 4 3 2 4 7 9 9 8 8 10 10 11 12 13 14 14 13 14 14 14 14 16 18 20 22 21 20 19 20 21 22 21 21 22 21 18 20 nan nan nan nan nan 11 12
nan nan nan nan nan nan nan nan nan nan nan nan nan nan nan nan nan nan nan nan nan nan nan nan nan nan nan 14 11 12 15 15 18 13 11 8 5 4 2 1 3 4 6 5 2 2 4 6 6 5 7 8 10 12 15 16 17 16 15 15 15 16 16 17 18 21 21 19 18 19 20 20 21 22 21 20 20 18 19 nan nan nan nan nan 11 11
nan nan nan nan nan nan nan nan nan nan nan nan nan nan nan nan nan nan nan nan nan nan nan nan nan nan nan nan 13 12 10 11 17 10 7 5 4 1 1 1 1 3 5 5 1 4 6 6 5 3 4 8 13 17 17 16 16 16 15 14 15 16 17 17 19 21 20 18 16 16 19 21 22 24 21 18 18 19 nan nan nan nan nan nan 13 13
nan nan nan nan nan nan nan nan nan nan nan nan nan nan nan nan nan nan nan nan nan nan nan nan nan nan nan nan nan 19 14 14 12 9 8 5 2 1 2 3 4 4 5 4 3 5 7 9 7 6 8 11 14 15 15 14 14 16 16 16 17 17 18 17 19 20 18 18 17 18 21 21 22 23 24 21 20 nan nan nan nan nan nan nan 15 17
nan nan nan nan nan nan nan nan nan nan nan nan nan nan nan nan nan nan nan nan nan nan nan nan nan nan nan nan nan nan 17 13 8 8 8 6 5 3 4 6 9 10 9 8 6 8 10 11 11 12 13 14 14 13 14 13 14 16 20 20 20 20 19 19 21 21 19 18 19 19 22 23 22 25 24 22 nan nan nan nan nan nan nan nan nan nan
nan nan nan nan nan nan nan nan nan nan nan nan nan nan nan nan nan nan nan nan nan nan nan nan nan nan nan nan nan nan nan 17 14 11 8 7 5 5 6 8 12 14 13 11 10 12 13 15 18 18 17 15 13 12 11 13 19 23 23 23 25 26 23 22 22 21 20 19 19 20 23 27 25 25 24 22 nan nan nan nan nan nan nan nan nan nan
nan nan nan nan nan nan nan nan nan nan nan nan nan nan nan nan nan nan nan nan nan nan nan nan nan nan nan nan nan nan nan nan nan nan nan 14 8 5 6 9 14 16 16 16 16 16 17 20 23 22 20 18 16 12 13 19 22 23 25 28 31 29 25 22 21 20 20 20 19 22 25 28 28 27 26 23 nan nan nan nan nan nan nan nan nan nan
nan nan nan nan nan nan nan nan nan nan nan nan nan nan nan nan nan nan nan nan nan nan nan nan nan nan nan nan nan nan nan nan nan nan nan nan nan 7 10 12 15 17 18 20 20 20 21 24 26 25 24 21 18 15 15 19 24 29 33 32 31 27 23 20 20 20 21 22 22 23 26 29 29 28 26 24 23 22 nan nan nan nan nan nan nan nan
nan nan nan nan nan nan nan nan nan nan nan nan nan nan nan nan nan nan nan nan nan nan nan nan nan nan nan nan nan nan nan 27 24 nan nan nan nan nan 12 15 18 20 22 21 22 24 23 25 28 28 27 24 21 18 17 23 32 38 38 35 24 21 22 23 23 23 24 25 25 24 26 29 29 27 26 25 24 22 nan nan nan nan nan nan nan nan
nan nan nan nan nan nan nan nan nan nan nan nan nan nan nan nan nan nan nan nan nan nan nan nan nan nan nan nan nan nan nan nan 26 22 18 nan nan nan nan 23 24 26 27 27 28 29 29 29 29 29 26 23 22 21 22 32 40 38 35 20 18 25 25 23 22 22 nan 24 24 24 24 27 27 26 25 23 23 21 21 nan nan nan nan nan nan nan
nan nan nan nan nan nan nan nan nan nan nan nan nan nan nan nan nan nan nan nan nan nan nan nan nan nan nan nan nan nan 30 31 30 27 25 24 25 29 30 32 33 34 35 36 37 37 37 35 34 33 28 22 21 21 29 39 38 33 25 23 27 23 21 19 19 nan nan nan nan nan 22 22 24 24 22 22 22 nan nan nan nan nan nan nan nan nan
nan nan nan nan nan nan nan nan nan nan nan nan nan nan nan nan nan nan nan nan nan nan nan nan nan nan nan nan 30 31 31 35 33 31 31 33 33 35 36 37 37 37 39 40 40 38 39 38 38 37 28 17 20 28 39 42 36 31 27 21 17 16 13 14 17 16 18 20 20 19 18 17 18 18 20 22 nan nan 26 nan nan nan nan nan nan nan
nan nan nan nan nan nan nan nan nan nan nan nan nan nan nan nan nan nan nan nan nan nan nan nan nan nan 32 nan nan 31 33 35 35 35 36 37 39 40 40 39 39 40 40 38 36 37 37 35 37 35 26 16 20 34 41 37 30 28 24 20 13 14 nan 11 12 12 13 15 14 12 12 12 12 13 17 20 23 nan nan nan nan nan nan nan nan nan
nan nan nan nan nan nan nan nan nan nan nan nan nan nan nan nan nan nan nan nan nan nan nan nan nan nan nan 31 nan 30 32 35 35 37 37 37 38 40 37 36 37 37 37 37 38 39 37 29 nan 33 30 23 27 37 36 32 27 19 17 17 18 20 9 7 10 13 12 10 9 10 11 11 12 12 15 19 20 22 nan nan nan nan nan nan nan nan
nan nan nan nan nan nan nan nan nan nan nan nan nan nan nan nan nan nan nan nan nan nan nan nan nan nan nan nan nan nan 27 31 32 33 34 35 35 36 36 37 36 36 34 35 37 34 32 31 32 32 36 39 35 35 35 28 24 19 14 18 25 16 10 6 10 11 9 9 10 11 12 12 12 13 13 16 18 19 18 nan nan nan nan nan nan nan
nan nan nan nan nan nan nan nan nan nan nan nan nan nan nan nan nan nan nan nan nan nan nan nan nan nan nan nan nan 20 24 26 27 26 29 30 31 30 31 32 31 30 32 nan 33 31 31 29 34 35 40 42 39 37 34 29 25 22 20 21 20 12 8 10 9 8 7 9 11 12 12 11 12 14 15 14 17 15 16 nan nan nan nan 20 nan 20
nan nan nan nan nan nan nan nan nan nan nan nan nan nan nan nan nan nan nan nan nan nan nan nan nan nan nan nan nan nan nan 20 22 24 25 26 27 26 nan nan 26 29 30 30 32 32 33 34 37 37 39 39 35 33 31 27 23 21 21 18 16 13 9 8 8 8 7 10 11 13 13 14 14 15 15 15 14 13 14 nan nan nan nan nan nan nan
nan nan nan nan nan nan nan nan nan nan nan nan nan nan nan nan nan nan nan nan nan nan nan nan nan nan nan nan nan nan nan nan 16 20 22 24 25 25 26 nan nan nan nan 29 30 33 33 33 35 36 32 30 26 24 23 22 20 18 18 17 15 11 9 10 10 8 10 11 12 13 14 15 15 16 15 16 15 14 16 18 nan nan nan nan nan nan
nan nan nan nan nan nan nan nan nan nan nan nan nan nan nan nan nan nan nan nan nan nan nan nan nan nan nan nan nan nan nan nan 12 17 20 21 23 24 24 25 29 30 30 30 32 32 31 29 29 29 29 26 23 21 20 19 17 16 15 16 17 13 11 12 13 13 12 13 14 14 14 15 14 15 17 17 17 15 16 18 nan nan nan nan nan nan
32 nan nan nan nan nan nan nan nan nan nan nan nan nan nan nan nan nan nan nan nan nan nan nan nan nan nan nan nan nan nan nan nan 16 21 20 21 22 24 25 27 28 28 29 29 30 28 27 27 27 26 25 23 21 20 19 16 17 16 17 18 17 16 15 15 15 14 14 15 15 14 14 14 15 17 18 17 15 nan 18 19 nan nan nan nan nan
nan nan nan nan nan nan nan nan nan nan nan nan nan nan nan nan nan nan nan nan nan nan nan nan nan nan nan nan nan nan nan 23 21 20 21 22 22 22 23 23 24 26 27 29 30 30 30 29 28 26 24 24 23 22 22 21 20 18 17 16 18 19 18 17 17 16 16 17 17 16 14 14 15 15 16 18 18 17 17 19 21 21 22 22 21 20
nan nan nan nan nan nan nan nan nan nan nan nan nan nan nan nan nan nan nan nan nan nan nan nan nan nan nan nan nan nan 23 24 23 24 24 24 24 25 26 26 26 27 27 28 28 29 28 26 25 25 24 23 24 23 22 21 21 20 19 18 19 19 19 20 19 18 18 18 18 18 18 18 18 18 18 19 20 20 21 23 24 23 21 20 19 19
nan nan nan nan nan nan nan nan nan nan nan nan nan nan nan nan nan nan nan nan nan nan nan nan nan nan nan nan nan 25 24 23 23 24 24 25 25 26 27 28 27 26 27 28 28 27 29 29 28 27 27 26 26 26 26 25 24 23 22 22 21 20 20 22 22 22 22 21 20 21 21 22 23 23 23 23 23 23 24 26 26 25 23 21 23 23
nan nan nan nan nan nan nan nan nan nan nan nan nan nan nan nan nan nan nan nan nan nan nan nan nan nan nan nan nan 26 25 25 24 24 25 26 26 25 26 28 30 30 30 30 32 33 33 31 29 29 28 29 29 29 29 28 27 27 26 25 24 24 23 25 25 26 26 26 25 25 25 27 28 27 26 27 27 27 27 28 28 27 28 28 27 27
nan nan nan nan nan nan nan nan nan nan nan nan nan nan nan nan nan nan nan nan nan nan nan nan nan nan nan nan nan 29 26 26 26 28 27 26 27 29 31 34 34 34 34 35 34 33 33 32 29 29 29 29 30 31 31 31 30 30 30 29 28 27 28 27 27 28 29 29 28 28 29 31 32 32 31 31 31 31 30 30 31 nan nan 30 28 28
nan nan nan nan nan nan nan nan nan nan nan nan nan nan nan nan nan nan nan nan nan nan nan nan nan nan nan nan nan 31 30 29 30 30 32 34 33 34 37 38 38 38 38 37 36 35 35 35 35 34 34 34 35 35 36 35 35 34 34 33 32 32 32 31 30 30 31 31 32 33 33 34 35 35 36 36 35 35 35 34 34 33 33 32 31 30
nan nan nan nan nan nan nan nan nan nan nan nan nan nan nan nan nan nan nan nan nan nan nan nan nan nan nan nan nan nan 32 31 36 40 39 38 38 40 42 41 41 42 41 41 40 40 40 41 41 42 nan nan nan nan nan nan 38 38 38 36 35 35 35 35 34 35 35 36 38 38 38 39 39 39 39 40 40 40 39 37 nan nan nan nan 34 nan
nan nan nan nan nan nan nan nan nan nan nan nan nan nan nan nan nan nan nan nan nan nan nan nan nan nan nan nan nan 40 42 43 43 42 42 41 43 45 45 44 44 43 43 42 42 42 43 nan nan nan nan nan nan nan nan nan nan nan nan nan nan 38 38 37 38 38 39 42 43 42 41 41 41 42 42 42 41 42 41 40 38 37 36 35 34 33
nan nan nan nan nan nan nan nan nan nan nan nan nan nan nan nan nan nan nan nan nan nan nan nan nan nan nan nan nan 47 47 46 45 43 44 46 46 48 48 47 45 45 44 44 nan nan nan nan nan nan nan nan nan nan nan nan nan nan nan nan nan nan nan nan nan nan 44 45 45 45 43 42 41 41 42 41 41 41 40 39 38 38 37 36 36 36
nan nan nan nan nan nan nan nan nan nan nan nan nan nan nan nan nan nan nan nan nan nan nan nan nan nan nan nan nan nan nan 46 44 43 42 42 45 48 49 49 48 nan nan nan nan nan nan nan nan nan nan nan nan nan nan nan nan nan nan nan nan nan nan nan nan nan nan nan nan 43 42 42 42 41 41 40 40 41 40 40 37 36 nan 36 nan 37
nan nan nan nan nan nan nan nan nan nan nan nan nan nan nan nan nan nan nan nan nan nan nan nan nan nan nan nan nan nan nan 44 45 46 46 46 48 49 50 51 nan nan nan nan nan nan nan nan nan nan nan nan nan nan nan nan nan nan nan nan nan nan nan nan nan nan nan nan nan nan nan nan nan nan nan 38 38 39 39 39 nan nan nan nan nan nan
nan nan nan nan nan nan nan nan nan nan nan nan nan nan nan nan nan nan nan nan nan nan nan nan nan nan nan nan nan nan nan nan nan 44 44 44 46 48 nan 48 49 nan nan nan nan nan nan nan nan nan nan nan nan nan nan nan nan nan nan nan nan nan nan nan nan nan nan nan nan nan nan nan nan nan nan nan nan nan nan nan nan nan nan nan nan nan
nan nan nan nan nan nan nan nan nan nan nan nan nan nan nan nan nan nan nan nan nan nan nan nan nan nan nan nan nan nan nan nan nan nan nan nan 48 49 nan nan nan nan nan nan nan nan nan nan nan nan nan nan nan nan nan nan nan nan nan nan nan nan nan nan nan nan nan nan nan nan nan nan nan nan nan nan nan nan nan nan nan nan nan nan nan nan
nan nan nan nan nan nan nan nan nan nan nan nan nan nan nan nan nan nan nan nan nan nan nan nan nan nan nan nan nan nan nan nan nan nan nan nan nan nan nan nan nan nan nan nan nan nan nan nan nan nan nan nan nan nan nan nan nan nan nan nan nan nan nan nan nan nan nan nan nan nan nan nan nan nan nan nan nan nan nan nan nan nan nan nan nan nan
nan nan nan nan nan nan nan nan nan nan nan nan nan nan nan nan nan nan nan nan nan nan nan nan nan nan nan nan nan nan nan nan nan nan nan nan nan nan nan nan nan nan nan nan nan nan nan nan nan nan nan nan nan nan nan nan nan nan nan nan nan nan nan nan nan nan nan nan nan nan nan nan nan nan nan nan nan nan nan nan nan nan nan nan nan nan
nan nan nan nan nan nan nan nan nan nan nan nan nan nan nan nan nan nan nan nan nan nan nan nan nan nan nan nan nan nan nan nan nan nan nan nan nan nan nan nan nan nan nan nan nan nan nan nan nan nan nan nan nan nan nan nan nan nan nan nan nan nan nan nan nan nan nan nan nan nan nan nan nan nan nan nan nan nan nan nan nan nan nan nan nan nan
nan nan nan nan nan nan nan nan nan nan nan nan nan nan nan nan nan nan nan nan nan nan nan nan nan nan nan nan nan nan nan nan nan nan nan nan nan nan nan nan nan nan nan nan nan nan nan nan nan nan nan nan nan nan nan nan nan nan nan nan nan nan nan nan nan nan nan nan nan nan nan nan nan nan nan nan nan nan nan nan nan nan nan nan nan nan
nan nan nan nan nan nan nan nan nan nan nan nan nan nan nan nan nan nan nan nan nan nan nan nan nan nan nan nan nan nan nan nan nan nan nan nan nan nan nan nan nan nan nan nan nan nan nan nan nan nan nan nan nan nan nan nan nan nan nan nan nan nan nan nan nan nan nan nan nan nan nan nan nan nan nan nan nan nan nan nan nan nan nan nan nan nan
nan nan nan nan nan nan nan nan nan nan nan nan nan nan nan nan nan nan nan nan nan nan nan nan nan nan nan nan nan nan nan nan nan nan nan nan nan nan nan nan nan nan nan nan nan nan nan nan nan nan nan nan nan nan nan nan nan nan nan nan nan nan nan nan nan nan nan nan nan nan nan nan nan nan nan nan nan nan nan nan nan nan nan nan nan nan
nan nan nan nan nan nan nan nan nan nan nan nan nan nan nan nan nan nan nan nan nan nan nan nan nan nan nan nan nan nan nan nan nan nan nan nan nan nan nan nan nan nan nan nan nan nan nan nan nan nan nan nan nan nan nan nan nan nan nan nan nan nan nan nan nan nan nan nan nan nan nan nan nan nan nan nan nan nan nan nan nan nan nan nan nan nan
nan nan nan nan nan nan nan nan nan nan nan nan nan nan nan nan nan nan nan nan nan nan nan nan nan nan nan nan nan nan nan nan nan nan nan nan nan nan nan nan nan nan nan nan nan nan nan nan nan nan nan nan nan nan nan nan nan nan nan nan nan nan nan nan nan nan nan nan nan nan nan nan nan nan nan nan nan nan nan nan nan nan nan nan nan nan
nan nan nan nan nan nan nan nan nan nan nan nan nan nan nan nan nan nan nan nan nan nan nan nan nan nan nan nan nan nan nan nan nan nan nan nan nan nan nan nan nan nan nan nan nan nan nan nan nan nan nan nan nan nan nan nan nan nan nan nan nan nan nan nan nan nan nan nan nan nan nan nan nan nan nan nan nan nan nan nan nan nan nan nan nan nan
nan nan nan nan nan nan nan nan nan nan nan nan nan nan nan nan nan nan nan nan nan nan nan nan nan nan nan nan nan nan nan nan nan nan nan nan nan nan nan nan nan nan nan nan nan nan nan nan nan nan nan nan nan nan nan nan nan nan nan nan nan nan nan nan nan nan nan nan nan nan nan nan nan nan nan nan nan nan nan nan nan nan nan nan 54 55
nan nan nan nan nan nan nan nan nan nan nan nan nan nan nan nan nan nan nan nan nan nan nan nan nan nan nan nan nan nan nan nan nan nan nan nan nan nan nan nan nan nan nan nan nan nan nan nan nan nan nan nan nan nan nan nan nan nan nan nan nan nan nan nan nan nan nan nan nan nan nan nan nan nan nan nan nan nan nan nan nan nan 55 57 58 58
nan nan nan nan nan nan nan nan nan nan nan nan nan nan nan nan nan nan nan nan nan nan nan nan nan nan nan nan nan nan nan nan nan nan nan nan nan nan nan nan nan nan nan nan nan nan nan nan nan nan nan nan nan nan nan nan nan nan nan nan nan nan nan nan nan nan nan nan nan nan nan nan nan nan nan nan nan nan nan nan nan nan nan nan 59 59
nan nan nan nan nan nan nan nan nan nan nan nan nan nan nan nan nan nan nan nan nan nan nan nan nan nan nan nan nan nan nan nan nan nan nan nan nan nan nan nan nan nan nan nan nan nan nan nan nan nan nan nan nan nan nan nan nan nan nan nan nan nan nan nan nan nan nan nan nan nan nan nan nan nan nan nan nan nan nan nan nan nan nan nan nan nan
nan nan nan nan nan nan nan nan nan nan nan nan nan nan nan nan nan nan nan nan nan nan nan nan nan nan nan nan nan nan nan nan nan nan nan nan nan nan nan nan nan nan nan nan nan nan nan nan nan nan nan nan nan nan nan nan nan nan nan nan nan nan nan nan nan nan nan nan nan nan nan nan nan nan nan nan nan nan nan nan nan nan nan nan nan nan
Wind_Direction
nan nan nan nan nan nan nan nan nan nan nan nan nan nan nan nan nan nan nan nan nan nan nan nan nan nan nan 263 269 273 273 272 273 275 267 263 262 263 260 262 262 270 277 272 274 281 286 286 287 278 271 277 286 284 298 314 332 339 347 268 263 278 290 285 276 271 271 271 270 268 270 275 283 285 286 285 285 284 282 282 284 285 285 286 285 283
nan nan nan nan nan nan nan nan nan nan nan nan nan nan nan nan nan nan nan nan nan nan nan nan nan nan nan 248 261 266 273 281 283 276 260 252 252 252 256 261 268 273 266 268 270 278 281 279 283 274 267 275 290 298 311 321 326 324 298 274 264 274 286 289 286 278 273 267 262 271 276 282 283 287 288 286 284 283 281 280 278 280 284 287 287 285
nan nan nan nan nan nan nan nan nan nan nan nan nan nan nan nan nan nan nan nan nan nan nan nan nan nan nan 242 257 263 258 233 233 211 214 229 235 235 240 249 259 267 267 267 272 276 278 279 279 278 269 272 281 287 299 293 283 282 271 253 257 269 276 286 279 271 265 256 255 266 279 284 280 272 278 282 282 281 280 277 275 275 281 288 290 292
nan nan nan nan nan nan nan nan nan nan nan nan nan nan nan nan nan nan nan nan nan nan nan nan nan nan nan 236 236 226 218 227 225 218 209 213 212 218 231 245 253 258 246 256 268 278 272 271 270 272 276 276 272 277 281 276 277 260 255 254 262 268 271 270 269 264 261 258 258 260 272 273 278 284 283 283 284 280 nan nan nan 267 268 281 287 293
nan nan nan nan nan nan nan nan nan nan nan nan nan nan nan nan nan nan nan nan nan nan nan nan nan nan 223 245 232 228 222 228 224 224 219 212 206 217 238 248 234 184 141 134 259 284 272 273 278 281 276 267 270 272 274 272 267 255 260 260 265 263 262 263 269 268 268 267 267 270 273 276 277 280 282 284 279 273 271 nan nan nan nan nan 284 293
nan nan nan nan nan nan nan nan nan nan nan nan nan nan nan nan nan nan nan nan nan nan nan nan nan nan nan 223 231 228 220 218 217 212 210 213 213 227 245 192 188 151 114 100 64 342 280 278 277 271 262 261 255 254 251 252 254 258 259 261 261 257 258 265 270 272 271 275 280 284 285 284 283 284 286 286 284 275 268 nan nan nan nan nan 271 282
nan nan nan nan nan nan nan nan nan nan nan nan nan nan nan nan nan nan nan nan nan nan nan nan nan nan nan nan 232 228 217 216 222 208 197 216 223 193 170 180 73 64 83 91 109 291 302 304 303 284 258 246 247 246 252 259 267 274 277 277 275 272 270 270 274 276 273 278 284 288 286 285 286 285 281 283 279 271 nan nan nan nan nan nan 274 278
nan nan nan nan nan nan nan nan nan nan nan nan nan nan nan nan nan nan nan nan nan nan nan nan nan nan nan nan nan 216 219 224 227 220 216 228 226 31 355 350 355 7 32 39 3 291 305 308 308 289 252 240 248 263 273 275 280 294 298 291 283 272 272 271 273 275 275 281 281 281 279 279 282 284 288 291 287 nan nan nan nan nan nan nan 276 288
nan nan nan nan nan nan nan nan nan nan nan nan nan nan nan nan nan nan nan nan nan nan nan nan nan nan nan nan nan nan 239 227 220 233 235 243 242 251 314 332 339 343 346 346 322 301 297 295 285 271 259 250 260 273 283 290 293 281 271 268 267 264 261 260 262 264 266 271 280 280 277 275 273 279 282 286 nan nan nan nan nan nan nan nan nan nan
nan nan nan nan nan nan nan nan nan nan nan nan nan nan nan nan nan nan nan nan nan nan nan nan nan nan nan nan nan nan nan 235 230 233 236 246 258 270 288 308 311 313 316 320 314 294 286 279 275 267 267 272 270 267 270 266 257 260 267 270 266 257 248 250 256 259 266 271 271 271 273 276 276 276 279 285 nan nan nan nan nan nan nan nan nan nan
nan nan nan nan nan nan nan nan nan nan nan nan nan nan nan nan nan nan nan nan nan nan nan nan nan nan nan nan nan nan nan nan nan nan nan 218 231 260 279 297 301 306 304 297 293 288 281 276 277 277 281 281 279 265 252 250 256 258 256 254 254 253 251 252 255 262 267 268 267 268 272 275 278 281 285 287 nan nan nan nan nan nan nan nan nan nan
nan nan nan nan nan nan nan nan nan nan nan nan nan nan nan nan nan nan nan nan nan nan nan nan nan nan nan nan nan nan nan nan nan nan nan nan nan 266 289 293 298 297 292 291 293 290 286 282 281 281 283 288 288 278 261 252 250 246 245 249 249 247 250 254 257 262 263 263 262 260 271 278 281 286 286 290 292 291 nan nan nan nan nan nan nan nan
nan nan nan nan nan nan nan nan nan nan nan nan nan nan nan nan nan nan nan nan nan nan nan nan nan nan nan nan nan nan nan 231 230 nan nan nan nan nan 268 284 282 281 288 291 289 284 283 284 284 286 289 292 291 287 278 259 248 245 243 237 236 244 243 247 252 256 261 264 269 274 276 277 279 281 283 284 286 287 nan nan nan nan nan nan nan nan
nan nan nan nan nan nan nan nan nan nan nan nan nan nan nan nan nan nan nan nan nan nan nan nan nan nan nan nan nan nan nan nan 229 232 234 nan nan nan nan 275 275 280 283 279 274 269 263 261 265 270 280 285 283 282 271 259 256 254 252 248 231 235 241 251 259 263 nan 270 273 276 276 277 278 277 277 278 280 282 284 nan nan nan nan nan nan nan
nan nan nan nan nan nan nan nan nan nan nan nan nan nan nan nan nan nan nan nan nan nan nan nan nan nan nan nan nan nan 234 235 237 239 241 246 253 263 266 269 273 278 279 280 279 276 271 265 260 257 258 267 274 265 257 259 261 260 266 242 241 257 265 266 269 nan nan nan nan nan 270 274 279 277 274 274 275 nan nan nan nan nan nan nan nan nan
nan nan nan nan nan nan nan nan nan nan nan nan nan nan nan nan nan nan nan nan nan nan nan nan nan nan nan nan 232 237 241 243 244 246 250 254 258 265 269 271 273 276 280 281 279 278 278 281 276 253 226 236 262 251 249 257 257 259 258 254 257 271 284 274 270 275 280 279 277 280 281 282 285 281 275 273 nan nan 285 nan nan nan nan nan nan nan
nan nan nan nan nan nan nan nan nan nan nan nan nan nan nan nan nan nan nan nan nan nan nan nan nan nan 240 nan nan 243 246 248 250 253 257 261 264 266 268 270 275 279 280 276 273 272 269 274 280 262 228 228 256 245 253 261 264 276 281 281 298 276 nan 272 289 302 293 284 282 288 299 297 295 294 287 281 281 nan nan nan nan nan nan nan nan nan
nan nan nan nan nan nan nan nan nan nan nan nan nan nan nan nan nan nan nan nan nan nan nan nan nan nan nan 246 nan 253 255 254 255 257 259 262 268 271 271 269 273 278 277 272 267 268 259 251 nan 262 240 256 266 257 259 262 269 291 301 315 293 265 282 289 286 285 284 295 300 296 302 302 296 287 282 284 283 278 nan nan nan nan nan nan nan nan
nan nan nan nan nan nan nan nan nan nan nan nan nan nan nan nan nan nan nan nan nan nan nan nan nan nan nan nan nan nan 260 261 259 260 263 265 262 262 262 264 266 267 260 255 258 261 261 251 263 264 250 251 253 254 263 265 276 296 300 281 273 318 354 307 269 271 275 289 288 288 296 299 291 286 282 290 287 283 280 nan nan nan nan nan nan nan
nan nan nan nan nan nan nan nan nan nan nan nan nan nan nan nan nan nan nan nan nan nan nan nan nan nan nan nan nan 252 252 259 264 264 264 261 259 257 259 260 261 260 258 nan 252 252 255 247 252 257 256 252 248 253 266 270 260 272 276 277 289 309 318 284 289 294 291 283 282 285 288 293 290 289 288 290 292 285 277 nan nan nan nan 277 nan 275
nan nan nan nan nan nan nan nan nan nan nan nan nan nan nan nan nan nan nan nan nan nan nan nan nan nan nan nan nan nan nan 263 269 267 258 256 253 253 nan nan 253 254 248 248 250 251 255 250 250 253 251 246 245 255 265 265 262 266 273 282 284 301 318 312 292 300 292 283 286 289 297 295 293 292 287 286 282 275 271 nan nan nan nan nan nan nan
nan nan nan nan nan nan nan nan nan nan nan nan nan nan nan nan nan nan nan nan nan nan nan nan nan nan nan nan nan nan nan nan 255 263 256 252 251 246 244 nan nan nan nan 244 246 249 250 252 253 256 252 248 250 255 261 261 260 271 280 284 278 278 291 292 293 295 288 283 281 289 287 289 288 290 286 283 276 270 269 271 nan nan nan nan nan nan
nan nan nan nan nan nan nan nan nan nan nan nan nan nan nan nan nan nan nan nan nan nan nan nan nan nan nan nan nan nan nan nan 248 265 259 254 251 250 249 250 247 249 249 246 246 247 249 248 250 254 253 250 249 247 248 253 258 257 267 266 263 273 276 273 278 282 281 278 278 280 280 282 286 286 286 282 278 281 278 277 nan nan nan nan nan nan
236 nan nan nan nan nan nan nan nan nan nan nan nan nan nan nan nan nan nan nan nan nan nan nan nan nan nan nan nan nan nan nan nan 261 267 259 261 262 260 257 253 251 249 250 251 252 254 256 255 254 252 247 244 242 239 237 236 236 246 253 260 270 271 269 268 272 278 281 278 275 273 277 280 290 288 285 278 280 nan 285 289 nan nan nan nan nan
nan nan nan nan nan nan nan nan nan nan nan nan nan nan nan nan nan nan nan nan nan nan nan nan nan nan nan nan nan nan nan 250 253 248 259 266 261 262 260 256 254 254 252 249 250 252 254 254 252 250 249 242 235 231 230 230 232 236 244 254 257 262 266 265 264 266 272 276 278 271 269 272 280 287 289 285 280 284 285 291 295 295 290 279 273 273
nan nan nan nan nan nan nan nan nan nan nan nan nan nan nan nan nan nan nan nan nan nan nan nan nan nan nan nan nan nan 244 251 243 246 247 247 251 256 256 253 252 252 251 250 248 246 247 249 249 246 243 241 236 234 234 238 242 246 248 251 253 257 261 263 263 264 264 263 265 267 269 273 277 283 287 285 282 286 289 291 295 298 293 284 275 270
nan nan nan nan nan nan nan nan nan nan nan nan nan nan nan nan nan nan nan nan nan nan nan nan nan nan nan nan nan 235 241 242 241 238 240 245 248 250 249 248 248 250 250 250 249 249 250 249 247 245 243 244 245 244 244 244 248 252 253 255 257 259 261 261 262 264 263 263 264 266 272 277 280 281 283 284 285 284 287 290 294 298 293 279 271 275
nan nan nan nan nan nan nan nan nan nan nan nan nan nan nan nan nan nan nan nan nan nan nan nan nan nan nan nan nan 233 236 243 244 241 241 240 241 245 245 244 244 245 246 248 247 249 252 252 248 245 244 245 247 247 247 247 247 250 253 257 257 259 261 264 267 267 267 269 270 272 275 277 279 281 280 279 280 282 285 286 287 288 284 281 278 277
nan nan nan nan nan nan nan nan nan nan nan nan nan nan nan nan nan nan nan nan nan nan nan nan nan nan nan nan nan 235 235 240 244 246 244 243 244 247 246 244 244 245 247 249 251 254 254 252 248 245 245 246 248 248 247 246 248 251 252 254 255 257 260 263 265 267 269 271 272 273 274 275 276 276 277 279 281 282 283 282 281 nan nan 282 280 275
nan nan nan nan nan nan nan nan nan nan nan nan nan nan nan nan nan nan nan nan nan nan nan nan nan nan nan nan nan 234 237 243 247 249 250 248 248 251 251 249 249 249 250 253 255 256 256 254 252 251 249 247 247 247 248 249 250 251 253 254 256 258 261 264 265 266 266 269 272 272 273 273 274 275 275 276 278 279 279 280 279 279 278 278 275 270
nan nan nan nan nan nan nan nan nan nan nan nan nan nan nan nan nan nan nan nan nan nan nan nan nan nan nan nan nan nan 238 245 246 245 246 247 250 253 254 252 250 250 252 254 254 254 255 255 254 254 nan nan nan nan nan nan 259 258 257 257 259 260 261 262 264 266 266 266 265 267 268 270 272 273 274 274 275 276 278 278 nan nan nan nan 271 nan
nan nan nan nan nan nan nan nan nan nan nan nan nan nan nan nan nan nan nan nan nan nan nan nan nan nan nan nan nan 240 241 242 244 245 246 247 250 254 255 254 252 252 252 253 254 253 253 nan nan nan nan nan nan nan nan nan nan nan nan nan nan 263 265 265 265 266 267 267 267 268 268 269 270 272 273 274 275 275 276 276 276 276 275 272 271 267
nan nan nan nan nan nan nan nan nan nan nan nan nan nan nan nan nan nan nan nan nan nan nan nan nan nan nan nan nan 240 240 242 242 243 249 249 251 254 256 257 256 256 255 255 nan nan nan nan nan nan nan nan nan nan nan nan nan nan nan nan nan nan nan nan nan nan 266 266 267 268 268 269 270 270 270 271 270 271 272 274 274 274 273 271 267 263
nan nan nan nan nan nan nan nan nan nan nan nan nan nan nan nan nan nan nan nan nan nan nan nan nan nan nan nan nan nan nan 241 244 245 244 248 252 253 254 255 255 nan nan nan nan nan nan nan nan nan nan nan nan nan nan nan nan nan nan nan nan nan nan nan nan nan nan nan nan 266 269 271 270 269 269 270 270 270 270 269 268 266 nan 267 nan 259
nan nan nan nan nan nan nan nan nan nan nan nan nan nan nan nan nan nan nan nan nan nan nan nan nan nan nan nan nan nan nan 248 247 249 248 248 250 250 252 252 nan nan nan nan nan nan nan nan nan nan nan nan nan nan nan nan nan nan nan nan nan nan nan nan nan nan nan nan nan nan nan nan nan nan nan 270 271 272 271 270 nan nan nan nan nan nan
nan nan nan nan nan nan nan nan nan nan nan nan nan nan nan nan nan nan nan nan nan nan nan nan nan nan nan nan nan nan nan nan nan 249 248 248 249 251 nan 252 252 nan nan nan nan nan nan nan nan nan nan nan nan nan nan nan nan nan nan nan nan nan nan nan nan nan nan nan nan nan nan nan nan nan nan nan nan nan nan nan nan nan nan nan nan nan
nan nan nan nan nan nan nan nan nan nan nan nan nan nan nan nan nan nan nan nan nan nan nan nan nan nan nan nan nan nan nan nan nan nan nan nan 245 249 nan nan nan nan nan nan nan nan nan nan nan nan nan nan nan nan nan nan nan nan nan nan nan nan nan nan nan nan nan nan nan nan nan nan nan nan nan nan nan nan nan nan nan nan nan nan nan nan
nan nan nan nan nan nan nan nan nan nan nan nan nan nan nan nan nan nan nan nan nan nan nan nan nan nan nan nan nan nan nan nan nan nan nan nan nan nan nan nan nan nan nan nan nan nan nan nan nan nan nan nan nan nan nan nan nan nan nan nan nan nan nan nan nan nan nan nan nan nan nan nan nan nan nan nan nan nan nan nan nan nan nan nan nan nan
nan nan nan nan nan nan nan nan nan nan nan nan nan nan nan nan nan nan nan nan nan nan nan nan nan nan nan nan nan nan nan nan nan nan nan nan nan nan nan nan nan nan nan nan nan nan nan nan nan nan nan nan nan nan nan nan nan nan nan nan nan nan nan nan nan nan nan nan nan nan nan nan nan nan nan nan nan nan nan nan nan nan nan nan nan nan
nan nan nan nan nan nan nan nan nan nan nan nan nan nan nan nan nan nan nan nan nan nan nan nan nan nan nan nan nan nan nan nan nan nan nan nan nan nan nan nan nan nan nan nan nan nan nan nan nan nan nan nan nan nan nan nan nan nan nan nan nan nan nan nan nan nan nan nan nan nan nan nan nan nan nan nan nan nan nan nan nan nan nan nan nan nan
nan nan nan nan nan nan nan nan nan nan nan nan nan nan nan nan nan nan nan nan nan nan nan nan nan nan nan nan nan nan nan nan nan nan nan nan nan nan nan nan nan nan nan nan nan nan nan nan nan nan nan nan nan nan nan nan nan nan nan nan nan nan nan nan nan nan nan nan nan nan nan nan nan nan nan nan nan nan nan nan nan nan nan nan nan nan
nan nan nan nan nan nan nan nan nan nan nan nan nan nan nan nan nan nan nan nan nan nan nan nan nan nan nan nan nan nan nan nan nan nan nan nan nan nan nan nan nan nan nan nan nan nan nan nan nan nan nan nan nan nan nan nan nan nan nan nan nan nan nan nan nan nan nan nan nan nan nan nan nan nan nan nan nan nan nan nan nan nan nan nan nan nan
nan nan nan nan nan nan nan nan nan nan nan nan nan nan nan nan nan nan nan nan nan nan nan nan nan nan nan nan nan nan nan nan nan nan nan nan nan nan nan nan nan nan nan nan nan nan nan nan nan nan nan nan nan nan nan nan nan nan nan nan nan nan nan nan nan nan nan nan nan nan nan nan nan nan nan nan nan nan nan nan nan nan nan nan nan nan
nan nan nan nan nan nan nan nan nan nan nan nan nan nan nan nan nan nan nan nan nan nan nan nan nan nan nan nan nan nan nan nan nan nan nan nan nan nan nan nan nan nan nan nan nan nan nan nan nan nan nan nan nan nan nan nan nan nan nan nan nan nan nan nan nan nan nan nan nan nan nan nan nan nan nan nan nan nan nan nan nan nan nan nan nan nan
nan nan nan nan nan nan nan nan nan nan nan nan nan nan nan nan nan nan nan nan nan nan nan nan nan nan nan nan nan nan nan nan nan nan nan nan nan nan nan nan nan nan nan nan nan nan nan nan nan nan nan nan nan nan nan nan nan nan nan nan nan nan nan nan nan nan nan nan nan nan nan nan nan nan nan nan nan nan nan nan nan nan nan nan nan nan
nan nan nan nan nan nan nan nan nan nan nan nan nan nan nan nan nan nan nan nan nan nan nan nan nan nan nan nan nan nan nan nan nan nan nan nan nan nan nan nan nan nan nan nan nan nan nan nan nan nan nan nan nan nan nan nan nan nan nan nan nan nan nan nan nan nan nan nan nan nan nan nan nan nan nan nan nan nan nan nan nan nan nan nan nan nan
nan nan nan nan nan nan nan nan nan nan nan nan nan nan nan nan nan nan nan nan nan nan nan nan nan nan nan nan nan nan nan nan nan nan nan nan nan nan nan nan nan nan nan nan nan nan nan nan nan nan nan nan nan nan nan nan nan nan nan nan nan nan nan nan nan nan nan nan nan nan nan nan nan nan nan nan nan nan nan nan nan nan nan nan 263 261
nan nan nan nan nan nan nan nan nan nan nan nan nan nan nan nan nan nan nan nan nan nan nan nan nan nan nan nan nan nan nan nan nan nan nan nan nan nan nan nan nan nan nan nan nan nan nan nan nan nan nan nan nan nan nan nan nan nan nan nan nan nan nan nan nan nan nan nan nan nan nan nan nan nan nan nan nan nan nan nan nan nan 263 265 265 263
nan nan nan nan nan nan nan nan nan nan nan nan nan nan nan nan nan nan nan nan nan nan nan nan nan nan nan nan nan nan nan nan nan nan nan nan nan nan nan nan nan nan nan nan nan nan nan nan nan nan nan nan nan nan nan nan nan nan nan nan nan nan nan nan nan nan nan nan nan nan nan nan nan nan nan nan nan nan nan nan nan nan nan nan 254 260
nan nan nan nan nan nan nan nan nan nan nan nan nan nan nan nan nan nan nan nan nan nan nan nan nan nan nan nan nan nan nan nan nan nan nan nan nan nan nan nan nan nan nan nan nan nan nan nan nan nan nan nan nan nan nan nan nan nan nan nan nan nan nan nan nan nan nan nan nan nan nan nan nan nan nan nan nan nan nan nan nan nan nan nan nan nan
nan nan nan nan nan nan nan nan nan nan nan nan nan nan nan nan nan nan nan nan nan nan nan nan nan nan nan nan nan nan nan nan nan nan nan nan nan nan nan nan nan nan nan nan nan nan nan nan nan nan nan nan nan nan nan nan nan nan nan nan nan nan nan nan nan nan nan nan nan nan nan nan nan nan nan nan nan nan nan nan nan nan nan nan nan nan